#timestamp,LO_Frequency,Hit 
1501189215.5,286046539.6,N
1501189235.3,286046537.8,N
1501189255.2,286046537.5,N
1501189275.9,286046538.8,N
1501189295.7,286046535.8,N
1501189315.5,286046536.3,N
1501189335.4,286046537.6,N
1501189355.2,286046537.5,N
1501189375.0,286046538.2,N
1501189375.9,286046538.2,N
1501189395.8,286046538.1,N
1501189415.6,286046537.0,N
1501189435.4,286046538.2,N
1501189455.3,286046537.0,N
1501189475.1,286046538.2,N
1501189476.0,286046538.2,N
1501189495.8,286046538.6,N
1501189515.7,286046536.7,N
1501189535.5,286046534.2,N
1501189555.3,286046538.8,N
1501189575.2,286046538.3,N
1501189595.9,286046535.8,N
1501189615.7,286046539.8,N
1501189635.5,286046539.6,N
1501189655.4,286046537.4,N
1501189675.2,286046536.9,N
1501189695.0,286046535.5,N
1501189695.9,286046535.5,N
1501189715.8,286046530.3,N
1501189735.6,286046530.0,N
1501189755.4,286046531.6,N
1501189775.3,286046533.5,N
1501189795.1,286046532.9,N
1501189796.0,286046532.9,N
1501189815.8,286046534.8,N
1501189835.7,286046535.3,N
1501189855.5,286046533.7,N
1501189875.3,286046533.1,N
1501189895.2,286046531.6,N
1501189915.9,286046530.2,N
1501189935.7,286046529.0,N
1501189955.5,286046526.9,N
1501189975.4,286046528.0,N
1501189995.2,286046532.9,N
1501190015.0,286046535.1,N
1501190015.9,286046535.1,N
1501190035.8,286046535.8,N
1501190055.6,286046538.5,N
1501190075.4,286046537.5,N
1501190095.3,286046539.2,N
1501190115.1,286046539.0,N
1501190116.0,286046539.0,N
1501190135.8,286046540.2,N
1501190155.7,286046541.6,N
1501190175.5,286046539.6,N
1501190195.3,286046540.1,N
1501190215.2,286046537.3,N
1501190235.9,286046537.3,N
1501190255.7,286046540.3,N
1501190275.5,286046539.6,N
1501190295.4,286046540.0,N
1501190315.2,286046540.0,N
1501190335.0,286046541.8,N
1501190335.9,286046541.8,N
1501190355.8,286046539.5,N
1501190375.6,286046541.4,N
1501190395.4,286046542.0,N
1501190415.3,286046540.1,N
1501190435.1,286046536.3,N
1501190436.0,286046536.3,N
1501190455.8,286046538.7,N
1501190475.7,286046536.2,N
1501190495.5,286046534.1,N
1501190515.3,286046535.3,N
1501190535.2,286046531.1,N
1501190555.9,286046530.5,N
1501190575.7,286046527.7,N
1501190595.5,286046528.6,N
1501190615.4,286046532.4,N
1501190635.2,286046531.5,N
1501190655.0,286046532.3,N
1501190655.9,286046532.3,N
1501190675.8,286046531.4,N
1501190695.6,286046535.1,N
1501190715.4,286046534.0,N
1501190735.3,286046533.8,N
1501190755.1,286046535.3,N
1501190756.0,286046535.3,N
1501190775.8,286046536.9,N
1501190795.7,286046537.3,N
1501190815.5,286046537.5,N
1501190835.3,286046539.2,N
1501190855.1,286046542.8,N
1501190875.9,286046542.6,N
1501190895.7,286046542.5,N
1501190915.5,286046543.0,N
1501190935.4,286046540.5,N
1501190955.2,286046538.5,N
1501190975.0,286046539.7,N
1501190975.9,286046539.7,N
1501190995.8,286046537.6,N
1501191015.6,286046540.1,N
1501191035.4,286046540.2,N
1501191055.3,286046536.0,N
1501191075.1,286046535.7,N
1501191076.0,286046535.7,N
1501191095.8,286046537.0,N
1501191115.7,286046538.8,N
1501191135.5,286046537.0,N
1501191155.3,286046538.5,N
1501191175.1,286046536.7,N
1501191195.9,286046535.1,N
1501191215.7,286046533.0,N
1501191235.5,286046532.8,N
1501191255.4,286046535.3,N
1501191275.2,286046535.7,N
1501191295.0,286046538.6,N
1501191295.9,286046538.6,N
1501191315.8,286046538.3,N
1501191335.6,286046535.7,N
1501191355.4,286046537.9,N
1501191375.3,286046540.1,N
1501191395.1,286046537.5,N
1501191396.0,286046537.5,N
1501191415.8,286046537.5,N
1501191435.7,286046539.5,N
1501191455.5,286046539.0,N
1501191475.3,286046536.1,N
1501191495.1,286046536.4,N
1501191515.9,286046536.2,N
1501191535.7,286046535.3,N
1501191555.5,286046531.0,N
1501191575.4,286046531.5,N
1501191595.2,286046533.0,N
1501191615.0,286046537.5,N
1501191615.9,286046537.5,N
1501191635.8,286046540.1,N
1501191655.6,286046538.5,N
1501191675.4,286046538.6,N
1501191695.3,286046537.2,N
1501191715.1,286046537.0,N
1501191716.0,286046537.0,N
1501191735.8,286046535.9,N
1501191755.7,286046538.2,N
1501191775.5,286046536.6,N
1501191795.3,286046533.9,N
1501191815.1,286046525.2,N
1501191835.9,286046523.5,N
1501191855.7,286046524.8,N
1501191875.5,286046527.3,N
1501191895.4,286046526.3,N
1501191915.2,286046529.1,N
1501191935.0,286046530.8,N
1501191935.9,286046530.8,N
1501191955.8,286046532.6,N
1501191975.6,286046535.1,N
1501191995.4,286046533.4,N
1501192015.3,286046535.6,N
1501192035.1,286046535.9,N
1501192036.0,286046535.9,N
1501192055.8,286046538.5,N
1501192075.6,286046534.5,N
1501192095.5,286046534.1,N
1501192115.3,286046536.4,N
1501192135.1,286046534.8,N
1501192155.9,286046536.0,N
1501192175.7,286046538.3,N
1501192195.5,286046538.6,N
1501192215.4,286046536.1,N
1501192235.2,286046538.4,N
1501192255.0,286046538.3,N
1501192255.9,286046538.3,N
1501192275.8,286046536.6,N
1501192295.6,286046536.9,N
1501192315.4,286046536.9,N
1501192335.2,286046534.3,N
1501192355.1,286046534.1,N
1501192356.0,286046534.1,N
1501192375.8,286046535.3,N
1501192395.6,286046535.7,N
1501192415.5,286046538.6,N
1501192435.3,286046536.6,N
1501192455.1,286046537.2,N
1501192475.9,286046534.4,N
1501192495.7,286046534.5,N
1501192515.5,286046537.0,N
1501192535.4,286046536.7,N
1501192555.2,286046538.8,N
1501192575.0,286046536.0,N
1501192575.9,286046536.0,N
1501192595.8,286046539.1,N
1501192615.6,286046539.2,N
1501192635.4,286046541.3,N
1501192655.2,286046540.4,N
1501192675.1,286046539.1,N
1501192676.0,286046539.1,N
1501192695.8,286046542.0,N
1501192715.6,286046541.9,N
1501192735.5,286046540.3,N
1501192755.3,286046538.1,N
1501192775.1,286046538.6,N
1501192795.9,286046538.0,N
